Regional Weather Roundup
Issued by NWS

Home | Current Version | Previous Version | Graphics & Text | Print | Product List | Glossary On
Versions: 1 2 3 4 5 6 7 8 9 10 11 12 13 14 15 16 17 18 19 20 21 22 23 24 25 26 27 28 29 30 31 32 33 34 35 36 37 38 39 40 41 42 43 44 45 46 47 48 49 50
000
ASUS45 KTFX 191119
RWRMT
MONTANA HOURLY WEATHER ROUNDUP
NATIONAL WEATHER SERVICE GREAT FALLS MT
419 AM MST FRI DEC 19 2014

NOTE: "FAIR" INDICATES FEW OR NO CLOUDS BELOW 12000 FEET WITH NO
SIGNIFICANT WEATHER AND/OR OBSTRUCTIONS TO VISIBILITY.

* THESE STATIONS ARE NOT UNDER NWS QUALITY CONTROL. THEY DO NOT
   REPORT WEATHER SUCH AS PRECIPITATION OR FOG.

MTZ001>007-043-191200-
WEST OF THE DIVIDE
CITY           SKY/WX    TMP DP  RH WIND       PRES   REMARKS
KALISPELL      FOG       30  30 100 CALM      29.94F VSB 1/2
MISSOULA       CLOUDY    28  28 100 CALM      29.99F
BUTTE          MOCLDY    16  10  77 CALM      29.98F
MULLAN PASS    FOG       30  28  92 S8        29.88F WCI  22
* ANACONDA     PTCLDY    30  21  69 SW3        N/A
* ESSEX        N/A       30  29  96 S1         N/A
* EUREKA APT   MOCLDY    37  32  82 S13       29.92F WCI  29
* HAMILTON APT MOCLDY    28  27  96 NE3       29.96F
* LIBBY APT    MOCLDY    32  30  92 CALM      29.94F VSB 3/4
* LINCOLN      N/A       30  27  89 SW3G9      N/A
* LOOKOUT PASS N/A       34  32  92 S3G8       N/A
* POLSON       N/A       33  32  96 N/A        N/A
* RONAN APT    MOCLDY    32  30  92 N/A        N/A
* SEELEY LAKE  N/A       26  25  96 NE1        N/A
* THOMP F APT  MOCLDY    25  24  96 E2G7       N/A
* YAAK HILL    N/A       35  32  89 S2         N/A
$$

MTZ008-052>055-191200-
SOUTHWEST MONTANA
CITY           SKY/WX    TMP DP  RH WIND       PRES   REMARKS
BOZEMAN        CLOUDY    27  19  72 CALM      29.99F
DILLON         CLOUDY    27  19  72 S8        30.00F WCI  19
* W YELLOWSTON PTCLDY    25  23  92 SW4G11     N/A
* THREE FORKS  MOCLDY    32  30  92 N/A        N/A
* BOULDER HILL N/A       25  17  72 S10        N/A   WCI  15
* MONIDA PASS  N/A       24  24 100 SE14       N/A   WCI  12
* RAYNOLDS PAS N/A       27  10  49 SE7G12     N/A   WCI  19
* WHITEHALL    N/A       30  21  69 S4G9       N/A
* WISE RIVER   N/A       22  19  88 SE4        N/A
$$

MTZ009>010-012-014-046-048-049-054-191200-
EAST SLOPES AND CENTRAL MONTANA
CITY           SKY/WX    TMP DP  RH WIND       PRES   REMARKS
CUT BANK       MOCLDY    28  21  75 S6        29.84F WCI  21
GREAT FALLS    CLEAR     30  25  82 S12       29.88F WCI  20
HELENA         CLOUDY    23  21  92 CALM      29.97S
MALMSTROM AFB  CLEAR     28  25  89 SW13      29.90F WCI  17
* CONRAD       PTCLDY    19  16  88 S5         N/A   WCI  12
* DEARBORN     N/A       35  25  67 S6         N/A   WCI  30
* EAST GLACIER N/A       35  26  70 W29G39     N/A   WCI  22
* MONARCH      N/A       31  16  54 S12G18     N/A   WCI  22
* PENDROY      N/A       30  20  66 SW1        N/A
* SWEET GRASS  N/A       27  22  81 SW8        N/A   WCI  19
* WHITE SULPH  N/A       30  19  64 S12G21     N/A   WCI  20
$$

MTZ011-013-016-021-035-040-045-047-050-051-191200-
NORTH CENTRAL MONTANA
CITY           SKY/WX    TMP DP  RH WIND       PRES   REMARKS
HAVRE          CLEAR     25  21  85 SW5       29.89S WCI  19
LEWISTOWN      CLEAR     30  19  64 SW14      29.90S WCI  19
* N BAR RANCH  CLEAR     23  18  81 CALM      29.91F
* CHINOOK      CLEAR     10   9  96 CALM      29.91F
* CHESTER      N/A       15  12  88 N3         N/A
* DENTON       N/A       28  21  75 SW8        N/A   WCI  20
* GEYSER       N/A       33  20  59 SW11G17    N/A   WCI  24
* JUDITH GAP   N/A       26  18  72 SW6        N/A   WCI  19
* LOMA         N/A       27  24  88 SW2        N/A
$$

MTZ017>020-022>027-061-062-191200-
NORTHEAST MONTANA
CITY           SKY/WX    TMP DP  RH WIND       PRES   REMARKS
GLASGOW        MOCLDY    18  16  92 CALM      29.91S
GLENDIVE       PTCLDY    25  21  85 S6        29.93S WCI  18
JORDAN         PTCLDY    25  21  85 NW6       29.91F WCI  18
SIDNEY         CLOUDY    23  19  85 CALM      29.93F
WOLF POINT     PTCLDY    18  14  84 NE3       29.93R
* BEAVER HILL  N/A       31  24  75 SW9G16     N/A   WCI  23
* CIRCLE       N/A       28  25  89 N/A        N/A
* LINDSAY DVD  N/A       31  26  82 W10        N/A   WCI  22
* NAVAJO       N/A       22  21  96 W2         N/A
* PLENTYWOOD A PTCLDY    19  18  96 CALM      29.91S VSB 1/2
* POPLAR APT   MOCLDY    19  18  96 CALM      29.92S
* SACO         N/A       17  15  92 NE2        N/A
$$

MTZ028>042-056>058-191200-
SOUTHCENTRAL AND SOUTHEAST MONTANA
CITY           SKY/WX    TMP DP  RH WIND       PRES   REMARKS
BAKER          PTCLDY    28  21  75 W13       29.93S WCI  17
BILLINGS       CLOUDY    32  19  59 SW22      29.95F WCI  19
LIVINGSTON     PTCLDY    36  21  54 W18G25    29.94F WCI  26
MILES CITY     CLEAR     25  19  78 SW7       29.94F WCI  17
* FORSYTH APT  PTCLDY    28  21  75 CALM      29.95F
* LAUREL APT   MOCLDY    32  12  43 S11G18     N/A   WCI  23
* ROUNDUP APT  MOCLDY    32  19  59 S6         N/A   WCI  26
* ALZADA       N/A       26  19  75 NW2        N/A
* HYSHAM       N/A       32  17  54 W4         N/A
* LAME DEER    N/A       34  16  48 NW6        N/A   WCI  29
* REED POINT   N/A       22  20  92 E2         N/A
* ROSCOE HILL  N/A       35   8  32 S4G12      N/A
$$

REGIONAL REPORTS...DAKOTAS
CITY           SKY/WX    TMP DP  RH WIND       PRES   REMARKS
WILLISTON      FOG       23  21  92 CALM      29.92S VSB M1/4
DICKINSON      CLOUDY    32  25  75 W7        29.89S WCI  25
BEACH          CLOUDY    32  27  82 SW10      29.92S WCI  24
CROSBY         FOG       25  25 100 W6        29.92F VSB 3    WCI  18
TIOGA          FOG       25  25 100 W5        29.93S VSB 1/2  WCI  19
WATFORD CITY   CLEAR     18  18 100 CALM      29.89F
BISMARCK       CLOUDY    21  19  92 SE3       29.97F
GRAND FORKS    FOG       21  19  92 S9        30.08F VSB 2    WCI  11
FARGO          FOG       25  21  85 S12       30.11F WCI  14
BUFFALO SD     PTCLDY    27  19  72 W8        29.87F WCI  19
RAPID CITY     PTCLDY    27  18  69 NW8       29.97F WCI  19
$$

REGIONAL REPORTS...WYOMING/IDAHO/WASHINGTON
CITY           SKY/WX    TMP DP  RH WIND       PRES   REMARKS
GILLETTE       PTCLDY    16  10  77 E3        29.97F
SHERIDAN       PTCLDY    21  12  68 CALM      29.96F
CODY           PTCLDY    32  21  64 S8        29.97F WCI  25
YELLOWSTONE LA MOCLDY    23  18  81 W5        30.07S WCI  16
SALMON         CLOUDY    27  23  85 CALM      30.06F
MULLAN PASS    FOG       30  28  92 S8        29.88S WCI  22
SAND POINT     LGT RAIN  34  34 100 NE3       29.92F
SPOKANE        CLOUDY    39  36  89 SE7       29.87F WCI  34
$$

REGIONAL REPORTS...ALBERTA
CITY           SKY/WX    TMP DP  RH WIND       PRES   REMARKS
CALGARY        MOCLDY    21  16  81 CALM      29.73F
LETHBRIDGE     CLEAR     25  19  78 SW21      29.80F WCI  10
MEDICINE HAT   CLEAR     21  19  92 SW5       29.83F WCI  14
EDMONTON       FAIR      14  10  84 SE9       29.74F WCI   2
WATERTON GATE  N/A       37  27  67 SW23G33    N/A   WCI  26
CARDSTON       N/A       28  25  89 S5         N/A   WCI  22
MILK RIVER     N/A       18  16  92 W2         N/A
$$

REGIONAL REPORTS...SASKATCHEWAN
CITY           SKY/WX    TMP DP  RH WIND       PRES   REMARKS
SWIFT CURRENT  CLEAR     16  14  92 SW10      29.85S WCI   4
MOOSE JAW      FOG       18  18 100 NW8       29.91S VSB M1/4 WCI   8
REGINA         FOG       23  23 100 SW6       29.90S VSB 1/4  WCI  16
VAL MARIE      N/A       12  10  92 CALM       N/A
ASSINIBOIA     N/A       16  14  92 W3         N/A
CORONACH       N/A       14  10  84 SE2        N/A

$$




USA.gov is the U.S. government's official web portal to all federal, state and local government web resources and services.